CW6421 Weather Reports


time (UTC)temp
C
wind
direction
speed
KPH
gust
KPH
rain 1hr
cm
rain 24hr
cm
rain mn
cm
humidity
%
barometer
mb
20260510040526 8 105 4.8 12.9 0.00 0.00 0.00 82 1016.6
20260510034529 8 79 3.2 12.9 0.00 0.00 0.00 82 1016.6
20260510033526 8 80 3.2 12.9 0.00 0.00 0.00 81 1016.6
20260510032527 8 71 3.2 12.9 0.00 0.00 0.00 81 1016.6
20260510031528 8 110 3.2 11.3 0.00 0.00 0.00 81 1016.6
20260510030529 8 124 4.8 11.3 0.00 0.00 0.00 80 1017.2
20260510025526 8 128 4.8 11.3 0.00 0.00 0.00 80 1017.2
20260510024528 8 130 6.4 11.3 0.00 0.00 0.00 80 1017.2
20260510022526 8 120 9.7 9.7 0.00 0.00 0.00 80 1017.2
20260510021529 9 97 6.4 12.9 0.00 0.00 0.00 80 1017.2
20260510020527 9 99 8.0 9.7 0.00 0.00 0.00 79 1017.9
20260510015527 9 110 9.7 9.7 0.00 0.00 0.00 79 1017.9
20260510014529 9 101 6.4 9.7 0.00 0.00 0.00 79 1017.9
20260510013526 9 99 9.7 9.7 0.00 0.00 0.00 79 1017.9
20260510004529 9 93 8.0 9.7 0.00 0.00 0.00 78 1018.7
20260510003527 10 106 9.7 11.3 0.00 0.00 0.00 78 1018.7
20260510002528 10 103 9.7 11.3 0.00 0.00 0.00 77 1018.7
20260510001529 10 110 4.8 6.4 0.00 0.00 0.00 77 1018.7
20260510000528 10 108 4.8 8.0 0.00 0.00 0.00 77 1019.1
20260509235538 10 92 6.4 8.0 0.00 0.00 0.00 77 1019.1
20260509233526 10 91 4.8 8.0 0.00 0.00 0.00 76 1019.1
20260509231529 10 97 4.8 8.0 0.00 0.00 0.00 75 1019.1
20260509230528 10 92 4.8 9.7 0.00 0.00 0.00 74 1019.4
20260509225526 10 100 4.8 8.0 0.00 0.00 0.00 74 1019.4
20260509224528 10 82 4.8 9.7 0.00 0.00 0.00 73 1019.4
20260509223527 10 86 3.2 9.7 0.00 0.00 0.00 73 1019.4
20260509221531 11 92 8.0 9.7 0.00 0.00 0.00 73 1019.4
20260509220528 11 92 6.4 8.0 0.00 0.00 0.00 72 1019.6
20260509215527 11 85 6.4 8.0 0.00 0.00 0.00 72 1019.6
20260509213526 11 108 3.2 8.0 0.00 0.00 0.00 71 1019.6
20260509212527 11 119 3.2 8.0 0.00 0.00 0.00 71 1019.6
20260509211530 11 90 3.2 8.0 0.00 0.00 0.00 70 1019.6
20260509210528 11 99 1.6 12.9 0.00 0.00 0.00 69 1019.3
20260509205526 11 97 3.2 14.5 0.00 0.00 0.00 69 1019.3
20260509204529 12 108 4.8 14.5 0.00 0.00 0.00 68 1019.3
20260509203527 12 112 8.0 16.1 0.00 0.00 0.00 68 1019.3
20260509202527 12 112 3.2 14.5 0.00 0.00 0.00 67 1019.3
20260509201530 12 138 6.4 14.5 0.00 0.00 0.00 67 1019.3
20260509200528 12 140 6.4 16.1 0.00 0.00 0.00 66 1019.0
20260509195526 12 124 6.4 14.5 0.00 0.00 0.00 65 1019.0
20260509194530 12 117 9.7 12.9 0.00 0.00 0.00 65 1019.0
20260509193527 13 115 6.4 12.9 0.00 0.00 0.00 64 1019.0
20260509192526 13 120 6.4 16.1 0.00 0.00 0.00 63 1019.0
20260509191530 13 110 6.4 14.5 0.00 0.00 0.00 62 1019.0
20260509190528 13 126 4.8 17.7 0.00 0.00 0.00 61 1018.9
20260509185527 14 122 4.8 17.7 0.00 0.00 0.00 60 1018.9
20260509184528 14 145 8.0 17.7 0.00 0.00 0.00 60 1018.9
20260509183526 14 131 4.8 16.1 0.00 0.00 0.00 59 1018.9
20260509181529 15 133 14.5 17.7 0.00 0.00 0.00 58 1018.9
20260509180528 15 131 12.9 19.3 0.00 0.00 0.00 58 1019.2
20260509175527 15 131 12.9 16.1 0.00 0.00 0.00 57 1019.2
20260509173527 15 77 9.7 16.1 0.00 0.00 0.00 56 1019.2
20260509172527 15 70 8.0 19.3 0.00 0.00 0.00 56 1019.2
20260509171531 16 88 11.3 16.1 0.00 0.00 0.00 56 1019.2
20260509170528 16 80 9.7 17.7 0.00 0.00 0.00 56 1019.8
20260509165526 16 86 11.3 19.3 0.00 0.00 0.00 55 1019.8
20260509164530 16 88 11.3 19.3 0.00 0.00 0.00 55 1019.8
20260509163527 16 85 12.9 17.7 0.00 0.00 0.00 55 1019.8
20260509161530 16 85 12.9 19.3 0.00 0.00 0.00 56 1019.8
20260509160528 16 70 14.5 16.1 0.00 0.00 0.00 56 1020.1
20260509155528 16 72 12.9 16.1 0.00 0.00 0.00 56 1020.1
20260509154530 16 161 4.8 12.9 0.00 0.00 0.00 56 1020.1
20260509153526 16 177 6.4 11.3 0.00 0.00 0.00 56 1020.1
20260509152526 16 174 8.0 12.9 0.00 0.00 0.00 56 1020.1
20260509151530 16 123 4.8 12.9 0.00 0.00 0.00 56 1020.1
20260509150528 16 124 6.4 17.7 0.00 0.00 0.00 56 1020.4
20260509145528 16 136 6.4 17.7 0.00 0.03 0.00 56 1020.4
20260509143528 16 62 9.7 19.3 0.00 0.03 0.00 55 1020.4
20260509142527 16 69 8.0 16.1 0.00 0.03 0.00 55 1020.4
20260509141530 16 64 8.0 17.7 0.00 0.03 0.00 55 1020.4
20260509135527 16 60 8.0 14.5 0.00 0.03 0.00 55 1020.8
20260509134529 16 241 6.4 12.9 0.00 0.03 0.00 55 1020.8
20260509133527 16 248 6.4 11.3 0.00 0.03 0.00 55 1020.8
20260509132527 17 255 6.4 12.9 0.00 0.03 0.00 54 1020.8
20260509131530 17 331 8.0 12.9 0.00 0.03 0.00 54 1020.8
20260509130527 17 79 8.0 19.3 0.00 0.03 0.00 54 1021.2
20260509125528 17 60 6.4 19.3 0.00 0.03 0.00 55 1021.2
20260509124531 17 69 4.8 19.3 0.00 0.03 0.00 55 1021.2
20260509123527 17 64 3.2 20.9 0.00 0.03 0.00 54 1021.2
20260509122527 17 68 8.0 19.3 0.00 0.03 0.00 54 1021.2
20260509121530 17 69 6.4 17.7 0.00 0.03 0.00 53 1021.2
20260509120529 18 37 4.8 19.3 0.00 0.03 0.00 53 1021.5
20260509114637 16 26 1.6 19.3 0.00 0.03 0.00 55 1021.5
20260509113528 16 30 4.8 22.5 0.00 0.03 0.00 55 1021.5
20260509112526 16 23 1.6 22.5 0.00 0.03 0.00 55 1021.5
20260509111530 17 31 6.4 19.3 0.00 0.03 0.00 54 1021.5
20260509110527 17 259 8.0 19.3 0.00 0.00 0.00 55 1021.9
20260509105528 17 241 9.7 17.7 0.00 0.00 0.00 56 1021.9
20260509104530 16 169 4.8 19.3 0.00 0.00 0.00 55 1021.9
20260509103528 17 157 6.4 19.3 0.00 0.00 0.00 56 1021.9
20260509102528 17 152 4.8 12.9 0.00 0.00 0.00 58 1022.0
20260509101529 16 11 4.8 12.9 0.00 0.00 0.00 59 1022.0
20260509100528 16 21 4.8 12.9 0.00 0.00 0.00 59 1022.0
20260509094529 15 354 8.0 14.5 0.00 0.00 0.00 62 1022.0
20260509093527 15 357 9.7 16.1 0.00 0.00 0.00 63 1022.0
20260509092527 15 347 8.0 16.1 0.00 0.00 0.00 64 1022.0
20260509091529 15 27 6.4 12.9 0.00 0.00 0.00 66 1022.0
20260509090528 14 59 9.7 14.5 0.00 0.00 0.00 68 1022.0
20260509085527 14 54 9.7 12.9 0.00 0.00 0.00 69 1022.0
20260509084530 13 55 6.4 14.5 0.00 0.00 0.00 69 1022.0
20260509082528 13 64 8.0 14.5 0.00 0.00 0.00 71 1022.0
20260509080527 12 54 8.0 9.7 0.00 0.00 0.00 72 1021.9
20260509075527 12 70 9.7 11.3 0.00 0.00 0.00 74 1021.9
20260509074529 12 55 8.0 8.0 0.00 0.00 0.00 74 1021.9
20260509073528 12 55 8.0 9.7 0.00 0.00 0.00 74 1021.9
20260509070526 11 30 4.8 8.0 0.00 0.00 0.00 75 1021.8
20260509065528 11 31 4.8 8.0 0.00 0.00 0.00 76 1021.8
20260509064529 10 27 4.8 8.0 0.00 0.00 0.00 76 1021.8
20260509063527 10 20 4.8 8.0 0.00 0.00 0.00 77 1021.8
20260509062527 10 32 4.8 8.0 0.00 0.00 0.00 77 1021.8
20260509061530 10 40 3.2 8.0 0.00 0.00 0.00 77 1021.8
20260509060528 10 71 3.2 9.7 0.00 0.00 0.00 77 1021.5
20260509055526 10 82 4.8 8.0 0.00 0.00 0.00 77 1021.5
20260509054529 10 74 3.2 8.0 0.00 0.00 0.00 77 1021.5
20260509053527 10 74 3.2 8.0 0.00 0.00 0.00 77 1021.5
20260509052526 10 74 4.8 8.0 0.00 0.00 0.00 77 1021.5
20260509051530 9 83 6.4 8.0 0.00 0.00 0.00 77 1021.5
20260509050528 9 75 3.2 8.0 0.00 0.00 0.00 77 1021.4
20260509045526 9 70 6.4 8.0 0.00 0.00 0.00 76 1021.4
20260509044529 9 56 8.0 9.7 0.00 0.00 0.00 76 1021.4
20260509043527 9 61 6.4 8.0 0.00 0.00 0.00 76 1021.4
20260509042527 9 50 4.8 8.0 0.00 0.00 0.00 76 1021.4
20260509041529 9 59 4.8 8.0 0.00 0.00 0.00 76 1021.4